Flag for U.S.A. Weather past 2 weeks in Escondido, California, U.S.A.

Now
55 °F

Overcast.


Feels Like: 53 °F
Forecast: 53 / 65 °F
Wind: 8 mph from West

Location: Ramona Airport

Current Time: Apr 21, 2015 at 10:02:45 PM

Latest Report: Apr 21, 2015 at 8:53 PM


Visibility: 10 mi

Pressure: 29.89 "Hg

Humidity: 72%

Dew point: 46 °F

Location of EscondidoLocation

Historic Weather in Escondido — Graph

°F

Escondido temperature yesterday

Maximum temperature yesterday: 71 °F (at 1:53 PM)
Minimum temperature yesterday: 44 °F (at 1:53 AM)
Average temperature yesterday: 57 °F

Past Weeks' High & Low Weather Summary

 TemperatureHumidityPressure
High82 °F (Apr 17, 12:53 PM)97% (Apr 13, 3:53 AM)30.09 "Hg (Apr 13, 3:53 AM)
Low38 °F (Apr 9, 4:53 AM)4% (Apr 16, 12:53 PM)29.82 "Hg (Apr 20, 3:53 PM)
Average57 °F56%29.96 "Hg
* Reported Apr 6 7:53 PM — Apr 21 7:53 PM, Escondido, Weather by CustomWeather, © 2015

Note: Actual official high and low records may vary slightly from our data, if they occured in-between our weather recording intervals... More about our weather records

Advertising

Escondido weather history for previous 24 hours

 ConditionsComfort  
Time TempWeatherWind HumidityBarometerVisibility
7:53 PM
Tue, Apr 21
56 °FOvercast.9 mph65%29.87 "Hg10 mi
6:53 PM58 °FOvercast.10 mph60%29.86 "Hg10 mi
5:53 PM61 °FPartly sunny.9 mph52%29.85 "Hg10 mi
4:53 PM63 °FPartly sunny.12 mph47%29.85 "Hg10 mi
3:53 PM65 °FPartly sunny.12 mph45%29.86 "Hg10 mi
2:53 PM65 °FScattered clouds.13 mph47%29.88 "Hg10 mi
1:53 PM64 °FPartly sunny.6 mph45%29.90 "Hg10 mi
12:53 PM62 °FOvercast.N/A48%29.91 "Hg10 mi
11:53 AM60 °FOvercast.3 mph53%29.93 "Hg10 mi
10:53 AM57 °FOvercast.No wind60%29.94 "Hg10 mi
9:53 AM57 °FOvercast.No wind67%29.93 "Hg10 mi
8:53 AM54 °FOvercast.3 mph77%29.93 "Hg10 mi
7:53 AM54 °FOvercast.6 mph77%29.92 "Hg10 mi
6:53 AM54 °FOvercast.3 mph74%29.90 "Hg10 mi
5:53 AM54 °FOvercast.5 mph74%29.89 "Hg10 mi
4:53 AM54 °FOvercast.7 mph74%29.87 "Hg10 mi
3:53 AM54 °FOvercast.5 mph77%29.87 "Hg10 mi
2:53 AM54 °FOvercast.6 mph80%29.86 "Hg10 mi
1:53 AM54 °FOvercast.6 mph80%29.87 "Hg10 mi
12:53 AM54 °FMostly cloudy.5 mph80%29.88 "Hg10 mi
11:53 PM
Mon, Apr 20
54 °FOvercast.No wind80%29.88 "Hg10 mi
10:53 PM54 °FOvercast.3 mph80%29.89 "Hg10 mi
Weather by CustomWeather, © 2015

See weather overviewHow to use our weather pages